Find Starlink 37164

NORAD ID: 68324 Int'l Des: 2026-059 Owner: SPXS Country: US Constellation: starlink operational
LEOCIRCULAR

Live Position

Loading 3D Globe...

About Starlink 37164

Description loading...

Upcoming Passes

Passes for default location (London). Set your location on the main map for personalized predictions.

Altitude History

Loading altitude history...

Two-Line Element Set

1 68324U 26059D 26127.26103460 .00016856 00000-0 57995-3 0 9999
2 68324 53.1604 76.1790 0001386 76.9024 283.2131 15.30199044 8273
Epoch: May 7, 2026 • Age: 8 hours

Current Status

Altitude 484.7 km
Velocity 7.62 km/s
Sub-Earth Point -29.91°S, 25.14°W
Launch Date Mar 22, 2026
Age 0.1 years
Type internet

Technical Details

Classification Payload
Mass 575.00 kg
Dry Mass 530.00 kg
Total Mass 575.00 kg
Length 0.30 m
Diameter 4.10 m
Span 29.00 m
Shape Box + pan
Manufacturer SPXS
Bus Type Starlink V2MO
Phase Status In Orbit
Owner/State SPXS/US

Most Searched